Location: Prague
(50.0830°N, 14.4670°E)
Time: 08:53:12
(UTC+02:00)

RS-15 - Pass Details

Date: 02 April 2023
Orbit: 1885 x 2159 km, 64.8° (Epoch: 29 May)

Event Time Altitude Azimuth Distance (km) Brightness Sun altitude
Rises 21:21:51 0° 295° (WNW) 5,685 12.2 -16.9°
Reaches altitude 10° 21:25:45 10° 302° (WNW) 4,669 11.3 -17.4°
Maximum altitude 21:37:11 42° 11° (NNE) 2,776 9.0 -18.9°
Drops below altitude 10° 21:48:10 10° 81° (E) 4,492 9.5 -20.4°
Enters shadow 21:48:27 - 81° (E) 4,564 9.6 -20.4°
